This demonstration page uses our WeatherBlox Daily Observations layout. Learn more.

Left ArrowRight Arrow

Hourly Observations for October 30, 2022

Temp ( °F °C ) Dew Point ( °F °C ) Humidity (%) Winds ( mph kmh ) Pressure ( in mb ) Visibility ( mi km ) Precip ( " mm )
12:51 am 00:51 Clear 43 6.1 30 -1.1 60 60 Calm 30.00 1016 10 16 0.00 0.00
1:51 am 01:51 Clear 44 6.7 30 -1.1 57 57 SSW 5 7 29.99 1016 10 16 0.00 0.00
2:51 am 02:51 Clear 41 5 29 -1.7 62 62 Calm 29.98 1015 10 16 0.00 0.00
3:51 am 03:51 Clear 40 4.4 30 -1.1 67 67 Calm 29.98 1015 10 16 0.00 0.00
4:51 am 04:51 Clear 40 4.4 29 -1.7 64 64 SE 5 7 29.99 1016 10 16 0.00 0.00
5:51 am 05:51 Clear 39 3.9 29 -1.7 67 67 Calm 30.01 1016 10 16 0.00 0.00
6:51 am 06:51 Sunny 39 3.9 29 -1.7 67 67 SSE 3 6 30.03 1017 10 16 0.00 0.00
7:51 am 07:51 Sunny 47 8.3 31 -0.6 53 53 Calm 30.03 1017 10 16 0.00 0.00
8:51 am 08:51 Sunny 55 12.8 33 0.6 43 43 SE 8 13 30.02 1017 10 16 0.00 0.00
9:51 am 09:51 Sunny 60 15.6 31 -0.6 33 33 ESE 8 13 30.01 1016 10 16 0.00 0.00
10:51 am 10:51 Sunny 63 17.2 32 0 31 31 ESE 7 11 29.99 1016 10 16 0.00 0.00
11:51 am 11:51 Sunny 66 18.9 31 -0.6 27 27 Calm 29.96 1014 10 16 0.00 0.00
12:51 pm 12:51 Sunny 68 20 31 -0.6 25 25 SW 3 6 29.92 1013 10 16 0.00 0.00
1:51 pm 13:51 Sunny 71 21.7 30 -1.1 22 22 Calm 29.87 1012 10 16 0.00 0.00
2:51 pm 14:51 Sunny 72 22.2 27 -2.8 19 19 Calm 29.86 1011 10 16 0.00 0.00
3:51 pm 15:51 Sunny 72 22.2 26 -3.3 18 18 VRB 3 6 29.86 1011 10 16 0.00 0.00
4:51 pm 16:51 Sunny 70 21.1 27 -2.8 20 20 W 5 7 29.85 1011 10 16 0.00 0.00
5:51 pm 17:51 Clear 63 17.2 26 -3.3 24 24 W 6 9 29.88 1012 10 16 0.00 0.00
6:51 pm 18:51 Clear 59 15 28 -2.2 30 30 N 7 11 29.90 1013 10 16 0.00 0.00
7:51 pm 19:51 Clear 60 15.6 28 -2.2 29 29 NNW 3 6 29.89 1012 10 16 0.00 0.00
8:51 pm 20:51 Clear 54 12.2 30 -1.1 40 40 N 3 6 29.88 1012 10 16 0.00 0.00
9:51 pm 21:51 Clear 54 12.2 29 -1.7 38 38 Calm 29.89 1012 10 16 0.00 0.00
10:51 pm 22:51 Clear 52 11.1 30 -1.1 43 43 Calm 29.89 1012 10 16 0.00 0.00
11:51 pm 23:51 Clear 49 9.4 30 -1.1 48 48 Calm 29.89 1012 10 16 0.00 0.00

Powered by AerisWeather